Weather History for 78458 - November, 2012

Change the Weather History Date:

Monday, November 26, 2012

  Actual Average Record
Temperature  
Mean Temperature 76 °F -  
Max Temperature 79 °F 81 °F - ()
Min Temperature 72 °F 69 °F - ()
Cooling Degree Days 10    
Growing Degree Days 26 (Base 50)    
Moisture  
Dew Point 74 °F    
Average Humidity 94    
Maximum Humidity 100    
Minimum Humidity 89    
Precipitation  
Precipitation 0.20 in - - ()
Sea Level Pressure  
Sea Level Pressure 30.06 in    
Wind  
Wind Speed 3 mph ()    
Max Wind Speed 14 mph    
Max Gust Speed -    
Visibility 6.4 miles    
Events Rain    
T = Trace of Precipitation, MM = Missing Value Source: Averaged Metar Reports

Daily Weather History Graph

Daily Weather History Graph

Search for Another Location

Airport or City:

Trip Planner

Search our weather history database for the weather conditions in past years. The results will help you decide how hot, cold, wet, or windy it might be!

Date:

Astronomy

Nov. 26, 2012 Rise Set
Actual Time 6:57 AM AST 6:01 PM AST
Civil Twilight 6:34 AM AST 6:25 PM AST
Nautical Twilight 6:06 AM AST 6:52 PM AST
Astronomical Twilight 5:40 AM AST 7:19 PM AST
Moon 4:45 PM AST (11/26) 5:13 AM AST (11/26)
Length of Visible Light 11h 51m
Length of Day
11h 04m
Waxing Gibbous, 97% of the Moon is Illuminated
Nov 26
Waxing Gibbous
Nov 28
Full
Dec 6
Last Quarter
Dec 13
New
Dec 20
First Quarter

Hourly Weather History & Observations

Time (AST) Temp. Dew Point Humidity Pressure Visibility Wind Dir Wind Speed Gust Speed Precip Events Conditions
5:00 AM 73.4 °F 71.6 °F 94% 30.01 in 6.2 mi Calm Calm - N/A   Scattered Clouds
8:00 AM 73 °F 73 °F 99% 30.07 in 5 mi Calm Calm - - Rain Light Rain
8:00 AM 73.4 °F 73.4 °F 100% 30.06 in 5.0 mi Calm Calm - N/A Rain Light Rain
9:00 AM 73.4 °F 73.4 °F 100% 29.95 in 5.0 mi Calm Calm - N/A Rain Light Rain
10:00 AM 77.0 °F 75.2 °F 94% 30.09 in 6.2 mi East 9.2 mph - N/A   Mostly Cloudy
11:00 AM 77 °F 75 °F 92% 30.12 in 10 mi ENE 6.7 mph - -   Partly Cloudy
11:00 AM 77.0 °F 75.2 °F 94% 30.09 in 6.2 mi ENE 5.8 mph - N/A   Mostly Cloudy
12:00 PM 78.8 °F 77.0 °F 94% 30.09 in 5.0 mi ENE 5.8 mph - N/A Rain Light Rain
1:00 PM 77.0 °F 75.2 °F 94% 30.06 in 6.2 mi East 13.8 mph - N/A   Mostly Cloudy
2:00 PM 77.0 °F 73.4 °F 89% 30.06 in 6.2 mi ESE 11.5 mph - N/A   Mostly Cloudy
3:00 PM 77.0 °F 73.4 °F 89% 30.06 in 3.7 mi East 6.9 mph - N/A Rain Light Rain
4:00 PM 77.0 °F 75.2 °F 94% 30.04 in 6.2 mi South 4.6 mph - N/A   Mostly Cloudy
5:00 PM 77.0 °F 75.2 °F 94% 30.04 in 6.2 mi Calm Calm - N/A   Mostly Cloudy
6:00 PM 77.0 °F 75.2 °F 94% 30.04 in 6.2 mi Calm Calm - N/A   Mostly Cloudy
7:00 PM 75.2 °F 73.4 °F 94% 30.06 in 6.2 mi Calm Calm - N/A   Mostly Cloudy
8:00 PM 75 °F 73 °F 91% 30.06 in 10 mi Calm Calm - -   Partly Cloudy
8:00 PM 75.2 °F 73.4 °F 94% 30.04 in 6.2 mi Calm Calm - N/A   Mostly Cloudy
11:00 PM 74 °F 72 °F 93% 30.14 in 10 mi West 6.7 mph - -   Partly Cloudy
11:00 PM 73.4 °F 71.6 °F 94% 30.12 in 6.2 mi West 6.9 mph - N/A   Mostly Cloudy